Time,TemperatureF,DewpointF,PressureIn,WindDirection,WindDirectionDegrees,WindSpeedMPH,WindSpeedGustMPH,Humidity,HourlyPrecipIn,Conditions,Clouds,dailyrainin,SoftwareType,DateUTC
2013-02-13 00:04:00,37.9,31.7,30.19,WSW,248,0.0,0.0,78,0.00,,---,0.00,VWS V14.01,2013-02-13 08:04:00,
2013-02-13 00:09:00,37.8,31.6,30.19,WSW,248,0.0,0.0,78,0.00,,---,0.00,VWS V14.01,2013-02-13 08:09:00,
2013-02-13 00:14:00,37.6,31.7,30.19,WSW,248,0.0,0.0,79,0.00,,---,0.00,VWS V14.01,2013-02-13 08:14:00,
2013-02-13 00:24:00,37.3,31.4,30.19,WSW,248,0.0,0.0,79,0.00,,---,0.00,VWS V14.01,2013-02-13 08:24:00,
2013-02-13 00:29:00,37.2,31.3,30.19,WSW,248,0.0,0.0,79,0.00,,---,0.00,VWS V14.01,2013-02-13 08:29:00,
2013-02-13 00:34:00,37.2,31.3,30.19,WSW,248,0.0,0.0,79,0.00,,---,0.00,VWS V14.01,2013-02-13 08:34:00,
2013-02-13 00:39:00,37.2,31.3,30.19,WSW,248,0.0,0.0,79,0.00,,---,0.00,VWS V14.01,2013-02-13 08:39:00,
2013-02-13 00:44:00,37.0,31.4,30.18,WSW,248,0.0,0.0,80,0.00,,---,0.00,VWS V14.01,2013-02-13 08:44:00,
2013-02-13 00:49:00,37.2,31.6,30.18,WSW,248,0.0,0.0,80,0.00,,---,0.00,VWS V14.01,2013-02-13 08:49:00,
2013-02-13 00:54:00,37.2,31.6,30.18,WSW,248,0.0,0.0,80,0.00,,---,0.00,VWS V14.01,2013-02-13 08:54:00,
2013-02-13 00:59:00,37.0,31.7,30.18,WSW,248,0.0,0.0,81,0.00,,---,0.00,VWS V14.01,2013-02-13 08:59:00,
2013-02-13 01:09:00,36.9,31.6,30.18,WSW,248,0.0,0.0,81,0.00,,---,0.00,VWS V14.01,2013-02-13 09:09:00,
2013-02-13 01:14:00,36.9,31.6,30.18,WSW,248,0.0,0.0,81,0.00,,---,0.00,VWS V14.01,2013-02-13 09:14:00,
2013-02-13 01:19:00,36.8,31.5,30.18,WSW,248,0.0,0.0,81,0.00,,---,0.00,VWS V14.01,2013-02-13 09:19:00,
2013-02-13 01:24:00,36.8,31.8,30.18,WSW,248,0.0,0.0,82,0.00,,---,0.00,VWS V14.01,2013-02-13 09:24:00,
2013-02-13 01:34:00,36.6,31.6,30.18,WSW,248,0.0,0.0,82,0.00,,---,0.00,VWS V14.01,2013-02-13 09:34:00,
2013-02-13 01:39:00,36.5,31.5,30.18,WSW,248,0.0,0.0,82,0.00,,---,0.00,VWS V14.01,2013-02-13 09:39:00,
2013-02-13 01:49:00,36.3,31.3,30.17,WSW,248,0.0,0.0,82,0.00,,---,0.00,VWS V14.01,2013-02-13 09:49:00,
2013-02-13 01:59:00,36.3,31.6,30.17,WSW,248,0.0,0.0,83,0.00,,---,0.00,VWS V14.01,2013-02-13 09:59:00,
2013-02-13 02:04:00,36.3,31.6,30.17,WSW,248,0.0,0.0,83,0.00,,---,0.00,VWS V14.01,2013-02-13 10:04:00,
2013-02-13 02:09:00,36.2,31.5,30.17,WSW,248,0.0,0.0,83,0.00,,---,0.00,VWS V14.01,2013-02-13 10:09:00,
2013-02-13 02:14:00,36.3,31.9,30.17,WSW,248,0.0,0.0,84,0.00,,---,0.00,VWS V14.01,2013-02-13 10:14:00,
2013-02-13 02:24:00,36.3,31.9,30.17,WSW,248,0.0,0.0,84,0.00,,---,0.00,VWS V14.01,2013-02-13 10:24:00,
2013-02-13 02:29:00,36.3,31.9,30.17,WSW,248,0.0,0.0,84,0.00,,---,0.00,VWS V14.01,2013-02-13 10:29:00,
2013-02-13 02:39:00,36.2,31.8,30.17,WSW,248,0.0,0.0,84,0.00,,---,0.00,VWS V14.01,2013-02-13 10:39:00,
2013-02-13 02:44:00,36.2,31.8,30.17,WSW,248,0.0,0.0,84,0.00,,---,0.00,VWS V14.01,2013-02-13 10:44:00,
2013-02-13 02:49:00,36.2,31.8,30.17,WSW,248,0.0,0.0,84,0.00,,---,0.00,VWS V14.01,2013-02-13 10:49:00,
2013-02-13 02:59:00,36.0,31.9,30.16,WSW,248,0.0,0.0,85,0.00,,---,0.00,VWS V14.01,2013-02-13 10:59:00,
2013-02-13 03:09:00,35.9,31.8,30.16,WSW,248,0.0,0.0,85,0.00,,---,0.00,VWS V14.01,2013-02-13 11:09:00,
2013-02-13 03:14:00,35.8,31.7,30.16,WSW,248,0.0,0.0,85,0.00,,---,0.00,VWS V14.01,2013-02-13 11:14:00,
2013-02-13 03:19:00,35.8,31.7,30.16,WSW,248,0.0,0.0,85,0.00,,---,0.00,VWS V14.01,2013-02-13 11:19:00,
2013-02-13 03:24:00,35.6,31.5,30.16,WSW,248,0.0,0.0,85,0.00,,---,0.00,VWS V14.01,2013-02-13 11:24:00,
2013-02-13 03:30:00,35.6,31.5,30.16,WSW,248,0.0,0.0,85,0.00,,---,0.00,VWS V14.01,2013-02-13 11:30:00,
2013-02-13 03:39:00,35.5,31.5,30.16,WSW,248,0.0,0.0,85,0.00,,---,0.00,VWS V14.01,2013-02-13 11:39:00,
2013-02-13 03:44:00,35.5,31.5,30.16,WSW,248,0.0,0.0,85,0.00,,---,0.00,VWS V14.01,2013-02-13 11:44:00,
2013-02-13 03:49:00,35.3,31.2,30.16,WSW,248,0.0,0.0,85,0.00,,---,0.00,VWS V14.01,2013-02-13 11:49:00,
2013-02-13 08:40:00,47.1,34.8,30.19,North,0,0.0,0.0,62,0.00,,---,0.00,VWS V14.01,2013-02-13 16:40:00,
2013-02-13 08:55:00,49.8,36.9,30.18,WNW,301,0.0,0.0,61,0.00,,---,0.00,VWS V14.01,2013-02-13 16:55:00,
2013-02-13 09:04:00,50.4,36.2,30.18,SW,220,0.0,0.0,58,0.00,,---,0.00,VWS V14.01,2013-02-13 17:04:00,
2013-02-13 09:09:00,51.0,36.8,30.18,SW,220,0.0,0.0,58,0.00,,---,0.00,VWS V14.01,2013-02-13 17:09:00,
2013-02-13 09:20:00,52.6,36.9,30.18,SW,220,0.0,0.0,55,0.00,,---,0.00,VWS V14.01,2013-02-13 17:20:00,
2013-02-13 09:29:00,53.9,36.7,30.17,SW,224,0.0,0.0,52,0.00,,---,0.00,VWS V14.01,2013-02-13 17:29:00,
2013-02-13 09:35:00,55.0,36.7,30.17,SW,229,0.0,0.0,50,0.00,,---,0.00,VWS V14.01,2013-02-13 17:35:00,
2013-02-13 09:45:00,56.7,37.2,30.17,SW,229,0.0,0.0,48,0.00,,---,0.00,VWS V14.01,2013-02-13 17:45:00,
2013-02-13 09:50:00,57.5,36.9,30.17,SW,229,0.0,0.0,46,0.00,,---,0.00,VWS V14.01,2013-02-13 17:50:00,
2013-02-13 10:00:00,59.2,36.1,30.17,SW,229,0.0,0.0,42,0.00,,---,0.00,VWS V14.01,2013-02-13 18:00:00,
2013-02-13 10:10:00,60.9,35.8,30.17,North,353,0.0,0.0,39,0.00,,---,0.00,VWS V14.01,2013-02-13 18:10:00,
2013-02-13 10:19:00,62.3,35.7,30.16,NE,48,0.0,0.0,37,0.00,,---,0.00,VWS V14.01,2013-02-13 18:19:00,
2013-02-13 10:24:00,62.4,34.4,30.16,NE,48,0.0,0.0,35,0.00,,---,0.00,VWS V14.01,2013-02-13 18:24:00,
2013-02-13 10:29:00,63.1,35.7,30.16,NE,48,0.0,0.0,36,0.00,,---,0.00,VWS V14.01,2013-02-13 18:29:00,
2013-02-13 10:40:00,63.4,36.0,30.16,NE,48,0.0,0.0,36,0.00,,---,0.00,VWS V14.01,2013-02-13 18:40:00,
2013-02-13 10:50:00,65.2,36.9,30.15,NW,308,0.0,0.0,35,0.00,,---,0.00,VWS V14.01,2013-02-13 18:50:00,
2013-02-13 10:59:00,65.8,37.4,30.14,North,3,0.0,0.0,35,0.00,,---,0.00,VWS V14.01,2013-02-13 18:59:00,
2013-02-13 11:04:00,66.1,36.9,30.14,NE,42,0.0,0.0,34,0.00,,---,0.00,VWS V14.01,2013-02-13 19:04:00,
2013-02-13 11:14:00,67.8,38.4,30.12,ESE,112,0.0,0.0,34,0.00,,---,0.00,VWS V14.01,2013-02-13 19:14:00,
2013-02-13 11:20:00,68.3,36.5,30.12,ESE,117,0.0,0.0,31,0.00,,---,0.00,VWS V14.01,2013-02-13 19:20:00,
2013-02-13 11:30:00,71.5,36.7,30.11,SSE,162,3.0,10.0,28,0.00,,---,0.00,VWS V14.01,2013-02-13 19:30:00,
2013-02-13 11:35:00,71.8,35.1,30.11,South,169,0.0,8.0,26,0.00,,---,0.00,VWS V14.01,2013-02-13 19:35:00,
2013-02-13 11:44:00,72.1,35.4,30.10,SE,138,5.0,10.0,26,0.00,,---,0.00,VWS V14.01,2013-02-13 19:44:00,
2013-02-13 11:50:00,72.3,34.5,30.10,South,188,5.0,10.0,25,0.00,,---,0.00,VWS V14.01,2013-02-13 19:50:00,
2013-02-13 12:00:00,72.7,35.9,30.10,SE,133,0.0,8.0,26,0.00,,---,0.00,VWS V14.01,2013-02-13 20:00:00,
2013-02-13 12:10:00,73.2,35.3,30.10,SE,145,5.0,10.0,25,0.00,,---,0.00,VWS V14.01,2013-02-13 20:10:00,
2013-02-13 12:15:00,73.3,35.4,30.09,SE,131,6.0,11.0,25,0.00,,---,0.00,VWS V14.01,2013-02-13 20:15:00,
2013-02-13 12:24:00,73.5,34.5,30.09,SE,140,2.0,10.0,24,0.00,,---,0.00,VWS V14.01,2013-02-13 20:24:00,
2013-02-13 12:29:00,73.7,34.7,30.09,SSE,150,0.0,5.0,24,0.00,,---,0.00,VWS V14.01,2013-02-13 20:29:00,
2013-02-13 12:35:00,73.9,36.9,30.09,WSW,239,0.0,6.0,26,0.00,,---,0.00,VWS V14.01,2013-02-13 20:35:00,
2013-02-13 12:40:00,74.2,36.2,30.09,SW,227,0.0,6.0,25,0.00,,---,0.00,VWS V14.01,2013-02-13 20:40:00,
2013-02-13 12:50:00,74.4,35.3,30.08,WSW,253,0.0,7.0,24,0.00,,---,0.00,VWS V14.01,2013-02-13 20:50:00,
2013-02-13 13:00:00,74.9,35.7,30.07,SW,230,1.0,1.0,24,0.00,,---,0.00,VWS V14.01,2013-02-13 21:00:00,
2013-02-13 13:10:00,73.3,40.9,30.07,WSW,241,0.0,8.0,31,0.00,,---,0.00,VWS V14.01,2013-02-13 21:10:00,
2013-02-13 13:20:00,72.1,41.4,30.07,West,281,1.0,3.0,33,0.00,,---,0.00,VWS V14.01,2013-02-13 21:20:00,
2013-02-13 13:25:00,72.7,42.0,30.07,West,272,5.0,5.0,33,0.00,,---,0.00,VWS V14.01,2013-02-13 21:25:00,
2013-02-13 13:34:00,71.8,43.4,30.06,WSW,240,0.0,10.0,36,0.00,,---,0.00,VWS V14.01,2013-02-13 21:34:00,
2013-02-13 13:39:00,71.5,43.2,30.06,SSW,198,4.0,10.0,36,0.00,,---,0.00,VWS V14.01,2013-02-13 21:39:00,
2013-02-13 13:44:00,71.1,42.1,30.06,West,261,3.0,8.0,35,0.00,,---,0.00,VWS V14.01,2013-02-13 21:44:00,
2013-02-13 13:50:00,70.9,42.6,30.06,SW,234,7.0,8.0,36,0.00,,---,0.00,VWS V14.01,2013-02-13 21:50:00,
2013-02-13 13:59:00,71.5,44.6,30.06,SW,220,0.0,7.0,38,0.00,,---,0.00,VWS V14.01,2013-02-13 21:59:00,
2013-02-13 14:05:00,71.6,46.0,30.06,West,263,0.0,11.0,40,0.00,,---,0.00,VWS V14.01,2013-02-13 22:05:00,
2013-02-13 14:14:00,69.9,46.4,30.06,WSW,239,0.0,11.0,43,0.00,,---,0.00,VWS V14.01,2013-02-13 22:14:00,
2013-02-13 14:20:00,68.8,45.4,30.06,SW,232,2.0,11.0,43,0.00,,---,0.00,VWS V14.01,2013-02-13 22:20:00,
2013-02-13 14:30:00,67.8,45.1,30.05,SSW,213,3.0,10.0,44,0.00,,---,0.00,VWS V14.01,2013-02-13 22:30:00,
2013-02-13 14:35:00,67.6,44.9,30.05,SSW,210,2.0,11.0,44,0.00,,---,0.00,VWS V14.01,2013-02-13 22:35:00,
2013-02-13 14:44:00,68.3,45.0,30.05,SSW,203,5.0,10.0,43,0.00,,---,0.00,VWS V14.01,2013-02-13 22:44:00,
2013-02-13 14:49:00,67.9,44.6,30.05,WSW,237,1.0,12.0,43,0.00,,---,0.00,VWS V14.01,2013-02-13 22:49:00,
2013-02-13 14:54:00,67.3,44.1,30.05,SSW,212,3.0,7.0,43,0.00,,---,0.00,VWS V14.01,2013-02-13 22:54:00,
2013-02-13 14:59:00,66.8,43.6,30.05,West,263,0.0,10.0,43,0.00,,---,0.00,VWS V14.01,2013-02-13 22:59:00,
2013-02-13 15:05:00,67.1,43.9,30.05,WSW,257,5.0,11.0,43,0.00,,---,0.00,VWS V14.01,2013-02-13 23:05:00,
2013-02-13 15:15:00,66.1,42.4,30.05,WNW,282,2.0,7.0,42,0.00,,---,0.00,VWS V14.01,2013-02-13 23:15:00,
2013-02-13 15:25:00,65.8,42.7,30.05,SSW,213,7.0,10.0,43,0.00,,---,0.00,VWS V14.01,2013-02-13 23:25:00,
2013-02-13 15:30:00,65.5,42.4,30.06,WSW,239,3.0,12.0,43,0.00,,---,0.00,VWS V14.01,2013-02-13 23:30:00,
2013-02-13 15:39:00,65.0,42.0,30.06,WSW,253,3.0,10.0,43,0.00,,---,0.00,VWS V14.01,2013-02-13 23:39:00,
2013-02-13 15:44:00,65.2,41.5,30.06,WSW,250,5.0,7.0,42,0.00,,---,0.00,VWS V14.01,2013-02-13 23:44:00,
2013-02-13 15:50:00,64.8,41.2,30.06,West,261,3.0,10.0,42,0.00,,---,0.00,VWS V14.01,2013-02-13 23:50:00,
2013-02-13 15:59:00,64.8,42.4,30.06,WSW,251,0.0,11.0,44,0.00,,---,0.00,VWS V14.01,2013-02-13 23:59:00,
2013-02-13 16:04:00,65.2,42.8,30.06,SW,217,0.0,4.0,44,0.00,,---,0.00,VWS V14.01,2013-02-14 00:04:00,
2013-02-13 16:09:00,64.8,43.6,30.06,WSW,250,0.0,0.0,46,0.00,,---,0.00,VWS V14.01,2013-02-14 00:09:00,
2013-02-13 16:14:00,64.8,44.1,30.06,SSW,203,0.0,0.0,47,0.00,,---,0.00,VWS V14.01,2013-02-14 00:14:00,
2013-02-13 16:25:00,64.7,45.7,30.06,SSW,205,0.0,0.0,50,0.00,,---,0.00,VWS V14.01,2013-02-14 00:25:00,
2013-02-13 16:35:00,63.9,44.9,30.06,SSW,202,0.0,0.0,50,0.00,,---,0.00,VWS V14.01,2013-02-14 00:35:00,
2013-02-13 16:40:00,63.5,45.1,30.06,SSW,202,0.0,0.0,51,0.00,,---,0.00,VWS V14.01,2013-02-14 00:40:00,
2013-02-13 16:49:00,62.7,45.8,30.06,SSW,208,0.0,0.0,54,0.00,,---,0.00,VWS V14.01,2013-02-14 00:49:00,
2013-02-13 16:59:00,61.8,45.0,30.06,SSW,208,0.0,0.0,54,0.00,,---,0.00,VWS V14.01,2013-02-14 00:59:00,
2013-02-13 17:04:00,61.2,45.4,30.06,SSW,208,0.0,0.0,56,0.00,,---,0.00,VWS V14.01,2013-02-14 01:04:00,
2013-02-13 17:14:00,61.2,45.4,30.06,SW,229,0.0,0.0,56,0.00,,---,0.00,VWS V14.01,2013-02-14 01:14:00,
2013-02-13 17:19:00,61.0,45.2,30.06,SW,229,0.0,0.0,56,0.00,,---,0.00,VWS V14.01,2013-02-14 01:19:00,
2013-02-13 17:24:00,60.9,45.1,30.06,SW,229,0.0,0.0,56,0.00,,---,0.00,VWS V14.01,2013-02-14 01:24:00,
2013-02-13 17:29:00,60.5,44.7,30.06,SW,229,0.0,0.0,56,0.00,,---,0.00,VWS V14.01,2013-02-14 01:29:00,
2013-02-13 17:34:00,60.2,44.5,30.06,SW,229,0.0,0.0,56,0.00,,---,0.00,VWS V14.01,2013-02-14 01:34:00,
2013-02-13 17:39:00,59.9,44.7,30.06,SW,229,0.0,0.0,57,0.00,,---,0.00,VWS V14.01,2013-02-14 01:39:00,
2013-02-13 17:45:00,59.5,44.3,30.06,SW,229,0.0,0.0,57,0.00,,---,0.00,VWS V14.01,2013-02-14 01:45:00,
2013-02-13 17:54:00,58.4,44.1,30.06,SW,229,0.0,0.0,59,0.00,,---,0.00,VWS V14.01,2013-02-14 01:54:00,
2013-02-13 17:59:00,58.0,44.2,30.07,SW,229,0.0,0.0,60,0.00,,---,0.00,VWS V14.01,2013-02-14 01:59:00,
2013-02-13 18:05:00,57.5,44.2,30.07,SW,229,0.0,0.0,61,0.00,,---,0.00,VWS V14.01,2013-02-14 02:05:00,
2013-02-13 18:14:00,56.3,44.3,30.07,SW,229,0.0,0.0,64,0.00,,---,0.00,VWS V14.01,2013-02-14 02:14:00,
2013-02-13 18:20:00,55.7,43.7,30.07,SW,229,0.0,0.0,64,0.00,,---,0.00,VWS V14.01,2013-02-14 02:20:00,
2013-02-13 18:30:00,54.8,42.9,30.07,SW,229,0.0,0.0,64,0.00,,---,0.00,VWS V14.01,2013-02-14 02:30:00,
2013-02-13 18:35:00,54.4,42.9,30.07,SW,229,0.0,0.0,65,0.00,,---,0.00,VWS V14.01,2013-02-14 02:35:00,
2013-02-13 18:40:00,53.9,42.4,30.07,SW,230,0.0,0.0,65,0.00,,---,0.00,VWS V14.01,2013-02-14 02:40:00,
2013-02-13 18:50:00,53.1,42.1,30.07,WSW,250,0.0,0.0,66,0.00,,---,0.00,VWS V14.01,2013-02-14 02:50:00,
2013-02-13 18:59:00,52.3,41.7,30.07,WSW,250,0.0,0.0,67,0.00,,---,0.00,VWS V14.01,2013-02-14 02:59:00,
2013-02-13 19:05:00,52.0,41.4,30.07,WSW,250,0.0,0.0,67,0.00,,---,0.00,VWS V14.01,2013-02-14 03:05:00,
2013-02-13 19:14:00,51.3,41.1,30.07,WSW,250,0.0,0.0,68,0.00,,---,0.00,VWS V14.01,2013-02-14 03:14:00,
2013-02-13 19:19:00,50.8,41.0,30.07,WSW,250,0.0,0.0,69,0.00,,---,0.00,VWS V14.01,2013-02-14 03:19:00,
2013-02-13 19:25:00,50.4,40.6,30.07,WSW,250,0.0,0.0,69,0.00,,---,0.00,VWS V14.01,2013-02-14 03:25:00,
2013-02-13 19:34:00,49.8,40.4,30.07,WSW,250,0.0,0.0,70,0.00,,---,0.00,VWS V14.01,2013-02-14 03:34:00,
2013-02-13 19:39:00,49.5,40.1,30.07,WSW,250,0.0,0.0,70,0.00,,---,0.00,VWS V14.01,2013-02-14 03:39:00,
2013-02-13 19:44:00,49.2,39.8,30.08,WSW,250,0.0,0.0,70,0.00,,---,0.00,VWS V14.01,2013-02-14 03:44:00,
2013-02-13 19:49:00,48.9,39.9,30.08,WSW,250,0.0,0.0,71,0.00,,---,0.00,VWS V14.01,2013-02-14 03:49:00,
2013-02-13 19:54:00,48.8,39.8,30.08,WSW,250,0.0,0.0,71,0.00,,---,0.00,VWS V14.01,2013-02-14 03:54:00,
2013-02-13 19:59:00,48.5,39.5,30.08,WSW,250,0.0,0.0,71,0.00,,---,0.00,VWS V14.01,2013-02-14 03:59:00,
2013-02-13 20:05:00,48.2,39.2,30.08,WSW,250,0.0,0.0,71,0.00,,---,0.00,VWS V14.01,2013-02-14 04:05:00,
2013-02-13 20:15:00,47.7,39.1,30.08,WSW,250,0.0,0.0,72,0.00,,---,0.00,VWS V14.01,2013-02-14 04:15:00,
2013-02-13 20:24:00,47.4,39.2,30.08,WSW,250,0.0,0.0,73,0.00,,---,0.00,VWS V14.01,2013-02-14 04:24:00,
2013-02-13 20:29:00,47.1,39.2,30.08,WSW,250,0.0,0.0,74,0.00,,---,0.00,VWS V14.01,2013-02-14 04:29:00,
2013-02-13 20:39:00,46.8,39.3,30.08,WSW,250,0.0,0.0,75,0.00,,---,0.00,VWS V14.01,2013-02-14 04:39:00,
2013-02-13 20:45:00,46.7,39.2,30.08,WSW,250,0.0,0.0,75,0.00,,---,0.00,VWS V14.01,2013-02-14 04:45:00,
2013-02-13 20:50:00,46.5,39.4,30.08,WSW,250,0.0,0.0,76,0.00,,---,0.00,VWS V14.01,2013-02-14 04:50:00,
2013-02-13 21:00:00,46.2,39.1,30.08,WSW,250,0.0,0.0,76,0.00,,---,0.00,VWS V14.01,2013-02-14 05:00:00,
2013-02-13 21:04:00,46.1,39.0,30.08,WSW,250,0.0,0.0,76,0.00,,---,0.00,VWS V14.01,2013-02-14 05:04:00,
2013-02-13 21:09:00,45.8,38.7,30.08,WSW,250,0.0,0.0,76,0.00,,---,0.00,VWS V14.01,2013-02-14 05:09:00,
2013-02-13 21:14:00,45.7,38.6,30.08,WSW,250,0.0,0.0,76,0.00,,---,0.00,VWS V14.01,2013-02-14 05:14:00,
2013-02-13 21:19:00,45.4,38.3,30.08,WSW,250,0.0,0.0,76,0.00,,---,0.00,VWS V14.01,2013-02-14 05:19:00,
2013-02-13 21:25:00,45.2,38.4,30.08,WSW,250,0.0,0.0,77,0.00,,---,0.00,VWS V14.01,2013-02-14 05:25:00,
2013-02-13 21:35:00,44.8,38.0,30.08,WSW,250,0.0,0.0,77,0.00,,---,0.00,VWS V14.01,2013-02-14 05:35:00,
2013-02-13 21:45:00,44.3,37.9,30.09,WSW,250,0.0,0.0,78,0.00,,---,0.00,VWS V14.01,2013-02-14 05:45:00,
2013-02-13 21:50:00,44.2,37.8,30.09,WSW,250,0.0,0.0,78,0.00,,---,0.00,VWS V14.01,2013-02-14 05:50:00,
2013-02-13 21:59:00,43.8,37.4,30.09,WSW,250,0.0,0.0,78,0.00,,---,0.00,VWS V14.01,2013-02-14 05:59:00,
2013-02-13 22:05:00,43.5,37.4,30.09,WSW,250,0.0,0.0,79,0.00,,---,0.00,VWS V14.01,2013-02-14 06:05:00,
2013-02-13 22:15:00,43.3,37.2,30.08,WSW,250,0.0,0.0,79,0.00,,---,0.00,VWS V14.01,2013-02-14 06:15:00,
2013-02-13 22:24:00,43.1,37.4,30.08,WSW,250,0.0,0.0,80,0.00,,---,0.00,VWS V14.01,2013-02-14 06:24:00,
2013-02-13 22:29:00,42.8,37.1,30.08,WSW,250,0.0,0.0,80,0.00,,---,0.00,VWS V14.01,2013-02-14 06:29:00,
2013-02-13 22:34:00,42.8,37.1,30.08,WSW,250,0.0,0.0,80,0.00,,---,0.00,VWS V14.01,2013-02-14 06:34:00,
2013-02-13 22:39:00,42.6,36.9,30.08,WSW,250,0.0,0.0,80,0.00,,---,0.00,VWS V14.01,2013-02-14 06:39:00,
2013-02-13 22:44:00,42.5,37.1,30.09,WSW,250,0.0,0.0,81,0.00,,---,0.00,VWS V14.01,2013-02-14 06:44:00,
2013-02-13 22:49:00,42.3,36.9,30.09,WSW,250,0.0,0.0,81,0.00,,---,0.00,VWS V14.01,2013-02-14 06:49:00,
2013-02-13 23:00:00,42.6,37.5,30.09,WSW,250,0.0,0.0,82,0.00,,---,0.00,VWS V14.01,2013-02-14 07:00:00,
2013-02-13 23:09:00,42.5,37.4,30.09,WSW,250,0.0,0.0,82,0.00,,---,0.00,VWS V14.01,2013-02-14 07:09:00,
2013-02-13 23:15:00,42.3,37.2,30.08,WSW,250,0.0,0.0,82,0.00,,---,0.00,VWS V14.01,2013-02-14 07:15:00,
2013-02-13 23:25:00,42.2,37.4,30.08,WSW,250,0.0,0.0,83,0.00,,---,0.00,VWS V14.01,2013-02-14 07:25:00,
2013-02-13 23:30:00,42.1,37.3,30.08,WSW,250,0.0,0.0,83,0.00,,---,0.00,VWS V14.01,2013-02-14 07:30:00,
2013-02-13 23:35:00,41.9,37.1,30.08,WSW,250,0.0,0.0,83,0.00,,---,0.00,VWS V14.01,2013-02-14 07:35:00,
2013-02-13 23:40:00,41.8,37.0,30.08,WSW,250,0.0,0.0,83,0.00,,---,0.00,VWS V14.01,2013-02-14 07:40:00,
2013-02-13 23:45:00,41.6,36.8,30.08,WSW,250,0.0,0.0,83,0.00,,---,0.00,VWS V14.01,2013-02-14 07:45:00,
2013-02-13 23:50:00,41.5,36.7,30.08,WSW,250,0.0,0.0,83,0.00,,---,0.00,VWS V14.01,2013-02-14 07:50:00,